User: anonymous   Login
Location: Hope
(40.9110°N, 74.9680°W)
Time: 11:34:10
(UTC-04:00)
Language:

CUTE-I - Orbit

View from above orbital plane
View from above orbital plane
View from above satellite
View from above satellite

Ground track
Ground track

The orbit data is extracted from the following two-line orbital elements,

1 27844U 03031E   21214.76492133  .00000046  00000-0  40168-4 0  9990
2 27844  98.6799 222.2737 0008903 309.8582  50.1812 14.22323242938568
Epoch (UTC): 02 August 2021 18:21:29
Eccentricity: 0.0008903
inclination: 98.6799°
perigee height: 811 km
apogee height: 824 km
right ascension of ascending node: 222.2737°
argument of perigee: 309.8582°
revolutions per day: 14.22323242
mean anomaly at epoch: 50.1812°
orbit number at epoch: 93856

The dashed part of the orbit path shows where the satellite is in the earth's shadow,  

DLR